DECAYED

STARLINK-5326, 55656 (Decayed)

Orbit data source: Space-Track

STARLINK-5326, 55656 was a payload satellite owned by SpaceX/Seattle (US) in LEO that was launched on Fri, 17 Feb 2023 UTC via an FALCON 9 launch vehicle from the Air Force Western Test Range (AFWTR). Payload-class satellites include a variety of spacecraft equipped with specific instruments for various scientific and technological missions. These include communications satellites like Starlink; space stations such as the ISS; scientific satellites like the Hubble; Earth observation satellites from companies like Planet Labs, Umbra, and HawkEye 360; GPS; miniature CubeSats for education and research; and military/defense satellites.

Not visible in the next 10 days
Identifier
55656, 2023-021AE
Orbit
Decayed
Country
Flag of USUS
Related business
Manufacturer
SpaceX/Seattle
Mission
Decayed Commercial Communications
Bus & Motor
STARLINK, Unknown motor
Mass
305 kg wet, ~290 kg dry
Launch date (UTC)
2023-02-17 (3 years ago)
Launch vehicle
FALCON 9
Launch site
Air Force Western Test Range (AFWTR)
Object type
Payload
Rocket body
Debris
Shape & HBR
Box + 1 Pan, 10.1 m
Radar Cross Section
13.562 m², Large (>1 m²)

Expand to show TLE details & history
Last TLE update: 7 months ago

TLE from 7 months ago
0 STARLINK-5326
1 55656U 23021AE  25336.73493924  .10395965  44258-5  21758-3 0  9997
2 55656  69.9774  53.1624 0005821 290.7225  69.3385 16.46625363154652
Epoch: 2025-12-02T17:38Z
TLE epoch observation values (Epoch: 2025-12-02T17:38:18.750Z)
Latitude
-0.00002°
Longitude
76.76844°
Altitude
149.478 km
Speed
7.818 km/s
True Right ascension
03h 32m 38s
True Declination
0° 00' 00"
Sunlit
Object was in full shadow at epoch
Visualization orbit readout
Latitude
Unknown
Longitude
Unknown
Altitude
Unknown
Speed
Unknown
Apparent Right ascension
Unknown
Apparent Declination
Unknown
Sunlit
N/A
Visualization observer readout
Local Sidereal Time
23:18:30
Azimuth
Unknown
Elevation
Unknown
Doppler factor
Unknown
Orbital elements
Apogee altitude
149.852 km
Perigee altitude
142.257 km
Semi-major axis
6,524.191 km
Eccentricity
0.00058
Inclination
69.9774°
RAAN
53.1624°
Arg. of periapsis
290.7225°
True anomaly
69.40093°
Mean anomaly
69.3385°
Eccentric anomaly
69.36971°
Mean motion
4.11863 °/min
Orbital period
87.41 mins
BSTAR
0.00021758
Loading maneuver chart data...
Computing Atmospheric mass density...
Loading historical data...
Loading historical data...
Loading historical data...
Loading historical data...
Loading historical data...
Loading historical data...
Loading historical data...

Documentation

Showing up to 5 results
|